www.pogodaiklimat.ru

Погода и климат >> Архив погоды >> Ирландия >> Белмаллет


ПОГОДА в Белмаллете

  • Прогноз погоды в Белмаллете
  • Монитор погоды в Белмаллете

АРХИВ ПОГОДЫ в Белмаллете

Время (UTC), дата Ветер
(напр.,м/с)
 
Видим.   Явления Облачность Т
(С)
Тd
(С)
f
(%)
Тe
(С)
Тes
(С)
Комфортность P
(гПа)
Po
(гПа)
Тmin
(С)
Tmax
(С)
R
(мм)
R24
(мм)
S
(см)
13 12.01 З 7 9000 м дымка н/о +11.0 +9.2 89 +8 +8 1026.8 1025.6
14 12.01 З 6 8000 м дымка н/о +11.1 +9.3 89 +8 +8 1026.3 1025.1
15 12.01 З 7 8000 м дымка н/о +10.9 +9.3 90 +7 +7 1025.9 1024.7
17 12.01 З 8 5000 м дымка н/о +9.9 +9.0 94 +6 +6 1025.6 1024.4
16 12.01 З 8 8000 м дымка н/о +10.3 +9.0 92 +6 +6 1025.7 1024.5
18 12.01 З 8 10 км н/о +9.8 +8.9 94 +6 +6 1025.3 1024.1 +11.2
19 12.01 З 7 9000 м в посл. час морось н/о +10.1 +9.0 93 +6 +6 1025.0 1023.8
20 12.01 З 9 7000 м дымка н/о +10.1 +8.9 92 +6 +6 1024.5 1023.3
21 12.01 З 9 11 км {морось, дымка} н/о +10.2 +8.3 88 +6 +6 1024.7 1023.5
23 12.01 З 8 14 км н/о +10.0 +8.0 87 +6 +6 1023.6 1022.4
22 12.01 З 7 10 км н/о +10.0 +8.1 88 +6 +6 1024.0 1022.8
00 13.01 З 8 11 км {морось, дымка} н/о +10.0 +7.8 86 +6 +6 1023.0 1021.8 0.0
01 13.01 З 8 9000 м дымка н/о +9.7 +7.6 87 +6 +6 1022.2 1021.0
02 13.01 З 8 9000 м дымка н/о +10.0 +7.9 87 +6 +6 1021.6 1020.4
03 13.01 З 9 8000 м дымка н/о +10.2 +8.1 87 +6 +6 1021.1 1019.9
05 13.01 З 8 4600 м слаб. ливневой дождь н/о +10.3 +8.8 90 +6 +6 1020.1 1018.9
04 13.01 З 9 8000 м дымка н/о +10.3 +8.4 88 +6 +6 1020.6 1019.4
06 13.01 З 8 6000 м дымка н/о +10.5 +9.2 92 +7 +7 1019.5 1018.3 +9.7 0.0
07 13.01 З 9 2500 м слаб. морось н/о +10.4 +9.5 94 +6 +6 1019.3 1018.1
08 13.01 З 8 3700 м слаб. ливневой дождь н/о +10.3 +9.7 96 +6 +6 1019.3 1018.1
09 13.01 З 8 7000 м дымка {ливн. осадки} н/о +10.4 +9.7 95 +6 +6 1019.2 1018.1
11 13.01 З 8 12 км н/о +10.5 +8.9 90 +7 +7 1019.4 1018.2
10 13.01 З 8 12 км в посл. час морось н/о +10.4 +9.6 95 +6 +6 1019.2 1018.0
12 13.01 З 7 10 км {ливн. осадки, морось} н/о +10.6 +8.4 86 +7 +7 1019.5 1018.3 0.4
13 13.01 СЗ 7 9000 м н/о +10.4 +7.2 81 +7 +7 1019.6 1018.4
14 13.01 СЗ 9 10 км в посл. час морось н/о +10.0 +5.5 74 +6 +6 1019.7 1018.5
15 13.01 СЗ 10 11 км в посл. час морось {ливн. осадки} н/о +9.7 +4.7 71 +5 +5 1019.8 1018.6
17 13.01 СЗ 10 10 км н/о +9.1 +5.0 75 +4 +4 1020.8 1019.6
16 13.01 СЗ 9 12 км н/о +9.5 +4.1 69 +5 +5 1020.2 1019.0
18 13.01 СЗ 8 11 км {ливн. осадки, морось} н/о +9.1 +4.4 72 +5 +5 1021.1 1019.9 +10.7 0.4
19 13.01 СЗ 10 14 км н/о +9.2 +3.3 67 +5 +5 1021.5 1020.3
20 13.01 СЗ 8 13 км н/о +9.2 +3.4 67 +5 +5 1021.8 1020.6
21 13.01 СЗ 8 16 км н/о +9.1 +2.5 63 +5 +5 1022.3 1021.1
23 13.01 СЗ 7 13 км н/о +8.7 +3.7 71 +5 +5 1023.3 1022.1
22 13.01 СЗ 7 13 км н/о +8.9 +2.7 65 +5 +5 1022.9 1021.7
00 14.01 СЗ 7 14 км н/о +8.7 +3.2 68 +5 +5 1023.6 1022.4
01 14.01 СЗ 5 11 км н/о +8.5 +3.8 72 +5 +5 1023.7 1022.5
02 14.01 СЗ 7 16 км н/о +8.5 +2.4 65 +5 +5 1023.9 1022.7
03 14.01 СЗ 7 13 км н/о +8.5 +4.0 73 +4 +4 1024.0 1022.8
05 14.01 СЗ 4 13 км н/о +8.3 +3.0 69 +5 +5 1024.0 1022.8
04 14.01 З 5 16 км н/о +8.3 +2.0 64 +5 +5 1024.0 1022.8
06 14.01 СЗ 5 15 км н/о +8.5 +3.4 70 +5 +5 1024.0 1022.8 +8.2
07 14.01 СЗ 3 16 км н/о +8.2 +3.1 70 +6 +6 1023.7 1022.5
08 14.01 З 3 16 км н/о +8.2 +3.6 73 +6 +6 1023.8 1022.6
09 14.01 З 5 14 км н/о +8.9 +4.6 74 +6 +6 1024.0 1022.8
11 14.01 З 5 10 км н/о +9.4 +5.6 77 +6 +6 1023.8 1022.6
10 14.01 З 4 13 км н/о +9.1 +5.2 77 +6 +6 1024.0 1022.8
12 14.01 ЮЗ 6 4400 м дымка н/о +8.8 +6.9 88 +5 +5 1023.2 1022.0
13 14.01 ЮЗ 5 10 км н/о +9.4 +8.2 92 +6 +6 1022.9 1021.7
14 14.01 ЮЗ 7 9000 м дымка н/о +9.6 +8.4 92 +6 +6 1021.9 1020.7
15 14.01 З 6 9000 м в посл. час морось {дымка} н/о +9.6 +8.4 92 +6 +6 1021.4 1020.2
17 14.01 З 7 9000 м н/о +9.3 +8.2 93 +5 +5 1021.1 1019.9
16 14.01 З 6 16 км н/о +9.5 +7.9 90 +6 +6 1021.3 1020.1
18 14.01 З 7 14 км {морось, дымка} н/о +9.5 +8.0 90 +5 +5 1020.8 1019.6 +9.7 0.6
19 14.01 ЮЗ 6 12 км н/о +9.7 +8.3 91 +6 +6 1020.6 1019.4
20 14.01 ЮЗ 6 13 км н/о +9.8 +8.4 91 +6 +6 1020.3 1019.1
21 14.01 З 5 11 км н/о +9.8 +8.3 90 +7 +7 1019.9 1018.7
23 14.01 ЮЗ 9 11 км н/о +10.2 +8.8 91 +6 +6 1019.2 1018.0
22 14.01 ЮЗ 7 11 км н/о +10.0 +8.7 92 +6 +6 1019.7 1018.5
00 15.01 ЮЗ 7 10 км н/о +10.3 +8.8 90 +7 +7 1018.9 1017.7
01 15.01 ЮЗ 9 9000 м дымка н/о +10.3 +8.9 91 +6 +6 1018.5 1017.3
02 15.01 ЮЗ 9 10 км н/о +10.3 +8.7 90 +6 +6 1018.0 1016.9
03 15.01 ЮЗ 9 12 км н/о +10.4 +8.6 89 +6 +6 1017.6 1016.4
05 15.01 ЮЗ 8 14 км н/о +10.2 +8.1 87 +6 +6 1015.9 1014.8
04 15.01 ЮЗ 8 12 км н/о +10.3 +8.4 88 +6 +6 1016.9 1015.7
06 15.01 ЮЗ 9 12 км н/о +10.4 +8.6 89 +6 +6 1017.6 1016.4
07 15.01 ЮЗ 9 14 км н/о +10.1 +8.4 89 +6 +6 1014.9 1013.7
08 15.01 ЮЗ 8 13 км н/о +10.1 +8.3 89 +6 +6 1014.3 1013.1
09 15.01 ЮЗ 9 20 км н/о +9.2 +7.9 92 +4 +4 1013.9 1012.7
11 15.01 ЮЗ 10 9000 м дымка н/о +9.9 +8.3 90 +5 +5 1012.2 1011.0
10 15.01 ЮЗ 9 7000 м дымка н/о +9.6 +8.1 90 +5 +5 1013.3 1012.2
12 15.01 ЮЗ 10 8000 м слаб. ливневой дождь н/о +10.1 +8.5 90 +6 +6 1011.5 1010.3 0.2
13 15.01 ЮЗ 11 5000 м слаб. ливневой дождь н/о +9.4 +8.1 92 +4 +4 1010.5 1009.3
14 15.01 ЮЗ 10 14 км н/о +10.5 +8.0 84 +6 +6 1009.1 1007.9
15 15.01 ЮЗ 11 13 км {ливн. осадки} н/о +10.2 +7.9 86 +6 +6 1008.1 1006.9
17 15.01 ЮЗ 10 13 км н/о +9.8 +8.0 89 +5 +5 1006.4 1005.2
16 15.01 ЮЗ 11 10 км в посл. час дождь {ливн. осадки} н/о +10.0 +8.5 90 +5 +5 1007.3 1006.1
18 15.01 ЮЗ 10 12 км {ливн. осадки} н/о +10.2 +7.9 86 +6 +6 1005.5 1004.3 +10.5 0.6
19 15.01 ЮЗ 11 11 км н/о +10.1 +8.0 87 +5 +5 1004.5 1003.3
20 15.01 ЮЗ 12 4100 м слаб. дождь н/о +9.8 +8.3 90 +5 +5 1003.4 1002.2
21 15.01 З 6 3200 м ливневой дождь н/о +8.2 +7.4 95 +4 +4 1003.2 1002.0
23 15.01 З 6 13 км морось {дождь} н/о +7.7 +5.9 88 +3 +3 1002.9 1001.7
22 15.01 З 8 8000 м слаб. дождь н/о +7.8 +6.8 93 +3 +3 1003.3 1002.1
00 16.01 З 7 14 км в посл. час дождь {ливн. осадки} н/о +8.5 +5.3 80 +4 +4 1002.5 1001.4 6
01 16.01 З 6 11 км слаб. ливневой дождь н/о +7.8 +4.7 81 +4 +4 1002.4 1001.2
02 16.01 СЗ 8 16 км в посл. час морось н/о +7.2 +3.3 76 +2 +2 1002.4 1001.2
03 16.01 З 7 21 км {ливн. осадки, морось} н/о +7.6 +1.6 66 +3 +3 1002.5 1001.4
05 16.01 З 7 21 км н/о +7.5 +0.7 62 +3 +3 1001.9 1000.7
04 16.01 З 6 21 км н/о +7.2 +1.0 65 +3 +3 1002.3 1001.2
06 16.01 З 8 15 км в посл. час морось {ливн. осадки} н/о +6.7 +1.8 71 +2 +2 1001.4 1000.2 +6.2 6
07 16.01 З 8 16 км слаб. ливневой дождь н/о +6.6 +1.0 67 +2 +2 1001.3 1000.1
08 16.01 З 6 14 км в посл. час дождь {ливн. осадки} н/о +5.3 +1.6 77 0 0 1000.9 999.7
09 16.01 ЮЗ 7 15 км {ливн. осадки} н/о +6.4 +2.5 76 +2 +2 1000.5 999.3
11 16.01 З 3 19 км н/о +6.5 +3.4 81 +3 +3 1000.4 999.2
10 16.01 З 5 21 км в посл. час дождь {ливн. осадки} н/о +6.6 +2.2 73 +3 +3 1000.4 999.2
12 16.01 З 4 22 км {ливн. осадки} н/о +7.7 +3.5 75 +4 +4 1000.8 999.6 0.4
13 16.01 С 4 30 км в посл. час дождь {ливн. осадки} н/о +6.0 +2.9 80 +2 +2 1001.1 999.9
14 16.01 С 6 28 км в посл. час дождь {ливн. осадки} н/о +7.8 +3.6 75 +4 +4 1001.8 1000.6
15 16.01 СЗ 7 23 км слаб. ливневой дождь н/о +6.5 +2.8 77 +2 +2 1002.7 1001.5
17 16.01 СЗ 7 24 км н/о +5.7 +2.2 78 +1 +1 1003.8 1002.6
16 16.01 СЗ 8 28 км в посл. час дождь {ливн. осадки} н/о +6.2 +1.1 70 +1 +1 1003.3 1002.1
18 16.01 СЗ 12
{19}
17 км слаб. ливневой дождь н/о +5.9 +2.8 80 -1 -1 1004.3 1003.1 +8.0 2
19 16.01 СЗ 10 14 км н/о +7.5 +2.1 69 +2 +2 1004.9 1003.7
20 16.01 СЗ 11
{19}
11 км слаб. ливневой дождь н/о +7.0 +3.3 77 +1 +1 1005.8 1004.6
21 16.01 С 11
{20}
7000 м слаб. ливневой дождь н/о +6.4 +4.0 85 0 0 1006.9 1005.7
23 16.01 С 12
{22}
8000 м ливневой дождь н/о +5.7 +3.4 85 -1 -1 1011.0 1009.8
22 16.01 С 11
{19}
15 км слаб. ливневой дождь н/о +6.3 +3.8 84 0 0 1009.0 1007.8
00 17.01 С 12
{20}
14 км в посл. час морось {ливн. осадки} н/о +6.1 0.0 65 -0 -0 1013.0 1011.8 2
01 17.01 С 9 13 км морось н/о +5.7 -0.6 64 0 0 1014.3 1013.1
02 17.01 С 9 25 км н/о +5.5 -2.9 55 0 0 1015.3 1014.1
03 17.01 С 6 22 км н/о +4.8 -2.8 58 0 0 1015.8 1014.6
05 17.01 С 7 20 км н/о +5.3 -1.0 64 0 0 1017.1 1015.9
04 17.01 С 7 23 км н/о +5.2 -2.3 58 0 0 1016.3 1015.1
06 17.01 С 5 17 км н/о +3.8 -1.7 67 -1 -1 1017.5 1016.3 +3.8 2
07 17.01 С 2 15 км н/о +4.9 +0.2 72 +3 +3 1018.0 1016.8
08 17.01 СВ 3 13 км н/о +4.2 +0.1 75 +1 +1 1018.4 1017.1
09 17.01 штиль 0 16 км в посл. час дождь {ливн. осадки} н/о +4.0 +1.0 81 +3 +3 1018.6 1017.4
11 17.01 ЮВ 3 15 км н/о +4.4 +2.4 87 +1 +1 1019.0 1017.8
10 17.01 штиль 0 14 км н/о +3.7 +1.1 83 +3 +3 1019.1 1017.9
12 17.01 Ю 3 15 км {ливн. осадки} н/о +5.0 +3.2 88 +1 +1 1018.8 1017.6 0.2
13 17.01 ЮВ 3 15 км н/о +5.5 +3.5 87 +2 +2 1017.8 1016.6
14 17.01 Ю 5 17 км н/о +5.8 +2.6 80 +1 +1 1017.2 1016.0
15 17.01 ЮВ 5 18 км н/о +6.3 +2.6 77 +2 +2 1016.5 1015.3
17 17.01 Ю 8 22 км н/о +5.6 +0.3 69 0 0 1015.2 1014.0
16 17.01 Ю 7 18 км н/о +5.9 +1.9 75 +1 +1 1016.2 1014.9
18 17.01 ЮВ 5 18 км н/о +4.5 -0.1 72 -0 -0 1014.1 1012.9 +6.5 0.2
19 17.01 ЮВ 6 18 км н/о +4.3 -1.2 67 -1 -1 1013.1 1011.9
20 17.01 ЮВ 6 22 км н/о +4.5 -0.6 69 -1 -1 1012.0 1010.7
21 17.01 ЮВ 6 26 км н/о +4.3 -1.0 68 -1 -1 1010.9 1009.7
23 17.01 ЮВ 12 19 км н/о +4.3 +1.2 80 -3 -3 1008.1 1006.9
22 17.01 ЮВ 9 26 км в посл. час морось {ливн. осадки} н/о +4.1 +0.1 75 -2 -2 1009.7 1008.5
00 18.01 ЮВ 12 18 км слаб. морось н/о +4.0 +2.1 87 -3 -3 1007.0 1005.8 0.0
01 18.01 ЮВ 12 14 км слаб. ливневой дождь н/о +3.8 +2.0 88 -4 -4 1005.6 1004.4
02 18.01 ЮВ 10 28 км слаб. ливневой дождь н/о +3.3 +1.9 91 -4 -4 1004.5 1003.3
03 18.01 ЮВ 11 26 км слаб. ливневой дождь н/о +3.4 +1.7 89 -4 -4 1003.6 1002.4
05 18.01 ЮВ 8 35 км н/о +4.2 +2.9 91 -2 -2 1002.0 1000.8
04 18.01 ЮВ 10 40 км морось н/о +3.7 +2.2 90 -3 -3 1002.6 1001.4
06 18.01 Ю 8 40 км слаб. ливневой дождь {морось} н/о +5.0 +4.1 94 -1 -1 1001.7 1000.5 +3.3 0.8
07 18.01 Ю 8 35 км в посл. час морось н/о +5.1 +4.4 95 -1 -1 1001.4 1000.2
08 18.01 Ю 7 4200 м ливневой дождь н/о +5.4 +4.9 97 -0 -0 1001.4 1000.2
09 18.01 Ю 7 27 км в посл. час морось {ливн. осадки} н/о +5.4 +4.9 97 -0 -0 1001.4 1000.2
11 18.01 Ю 5 17 км в посл. час морось н/о +6.8 +6.3 97 +2 +2 1001.7 1000.6
10 18.01 Ю 6 13 км слаб. ливневой дождь н/о +5.9 +5.5 97 +1 +1 1001.6 1000.4
12 18.01 Ю 5 7000 м слаб. дождь н/о +7.7 +7.3 97 +4 +4 1001.5 1000.3 2
13 18.01 Ю 6 18 км в посл. час дождь {ливн. осадки} н/о +8.2 +7.2 93 +4 +4 1001.1 999.9
14 18.01 Ю 5 18 км н/о +8.7 +7.3 91 +5 +5 1000.6 999.4
15 18.01 Ю 7 17 км {ливн. осадки} н/о +8.4 +7.2 92 +4 +4 1000.1 998.9
17 18.01 ЮЗ 5 8000 м слаб. дождь н/о +7.7 +7.1 96 +4 +4 1000.0 998.8
16 18.01 Ю 5 9000 м слаб. дождь н/о +7.9 +7.2 95 +4 +4 1000.0 998.8
18 18.01 Ю 4 7000 м слаб. дождь н/о +7.6 +7.1 97 +4 +4 1000.1 998.9 +9.2 5
19 18.01 Ю 3 8000 м в посл. час морось н/о +7.0 +6.6 97 +4 +4 1000.1 998.9
20 18.01 З 2 4100 м слаб. ливневой дождь н/о +7.5 +7.1 97 +5 +5 1000.4 999.3
21 18.01 Ю 1 8000 м в посл. час дождь {ливн. осадки, морось} н/о +6.6 +6.2 97 +5 +5 1000.6 999.4
23 18.01 ЮВ 1 7000 м в посл. час морось н/о +6.6 +6.2 97 +5 +5 1001.2 1000.0
22 18.01 ЮЗ 2 13 км в посл. час дождь {ливн. осадки} н/о +7.2 +6.8 97 +5 +5 1000.8 999.6
00 19.01 Ю 1 6000 м дымка {ливн. осадки} н/о +5.2 +4.7 97 +4 +4 1001.5 1000.3 2
01 19.01 ЮВ 2 9000 м дымка н/о +5.8 +5.4 97 +3 +3 1001.6 1000.4
02 19.01 Ю 2 8000 м слаб. ливневой дождь н/о +6.4 +6.2 99 +4 +4 1001.7 1000.5
03 19.01 ЮЗ 1 2700 м слаб. дождь н/о +6.5 +6.2 98 +5 +5 1002.0 1000.8
05 19.01 ЮВ 2 4000 м слаб. ливневой дождь н/о +5.8 +5.6 99 +3 +3 1002.1 1001.0
04 19.01 ЮВ 2 7000 м дымка н/о +5.6 +5.4 99 +3 +3 1001.9 1000.7
06 19.01 ЮВ 1 8000 м слаб. ливневой дождь н/о +6.2 +6.1 99 +5 +5 1002.5 1001.3 +5.0 3
07 19.01 ЮВ 2 2500 м слаб. ливневой дождь н/о +6.4 +6.1 98 +4 +4 1003.0 1001.8
08 19.01 Ю 2 1600 м в посл. час морось н/о +6.6 +6.4 99 +4 +4 1003.5 1002.3
09 19.01 ЮВ 3 2100 м сильн. морось {ливн. осадки} н/о +6.7 +6.5 99 +3 +3 1004.3 1003.1
11 19.01 ЮВ 2 4000 м дымка н/о +7.6 +7.5 99 +5 +5 1005.4 1004.2
10 19.01 ЮВ 2 2300 м слаб. ливневой дождь н/о +7.2 +7.0 99 +5 +5 1004.9 1003.7
12 19.01 ЮВ 3 2400 м дымка {ливн. осадки} н/о +8.1 +8.0 99 +5 +5 1005.7 1004.5 2
13 19.01 ЮВ 1 21 км в посл. час морось {ливн. осадки} н/о +8.6 +8.4 99 +8 +8 1005.7 1004.5

 

Местоположение метеостанции Белмаллет (Ирландия): широта 54.23 долгота -10.00 высота над уровнем моря 9 м.

В архиве по умолчанию представлена погода в Белмаллете за последнюю неделю. Архивные данные за месяц целиком и за предыдущие месяцы, начиная с января 2011 года, Вы можете получить, выбрав интересующий диапазон дат из раскрывающегося списка и нажав кнопку "Ввод!".


*Определитесь, кто Вы:
робот инопланетянин человек

Внимание! Время в таблицах - всемирное. Для получения местного времени необходимо прибавить поправку, которая равна 0 ч.

Смотрите также архив погоды в соседних городах и на ближайших метеорологических станциях:

Погода в Аэропорту Нок (Ирландия) (85 км)
Погода в Крэрморрисе (Ирландия) (88 км)
Погода в Обсерватории Мейс-Хед (Ирландия) (101 км)
Погода на Финнер-роуд (Ирландия) (118 км)
Погода в Томастауне (Великобритания) (157 км)
Погода в Каследерге (Великобритания) (165 км)
Погода в Баллихейзе (Ирландия) (176 км)
Погода в Аэропорту Шэннон (Ирландия) (186 км)
Погода в Гортине (Ирландия) (187 км)
Погода в Муллингаре (Ирландия) (189 км)

Пояснения к столбцам:

Ветер - указаны скорость ветра в м/с - средняя за 10 мин, порывы в срок и между сроками (в фигурных скобках) и направление, откуда дует ветер: С - северный, СВ - северо-восточный, В - восточный, ЮВ - юго-восточный, Ю - южный, ЮЗ - юго-западный, З - западный, СЗ - северо-западный.
Видимость - горизонтальная дальность видимости в метрах или километрах. При видимости от 1 до 10 км при отсутствии осадков обычно наблюдается дымка, при ухудшении видимости до 1 км и менее - туман. В сухую погоду видимость может ухудшаться дымом, пылью или мглою.
Явления - указаны атмосферные явления, наблюдавшиеся в срок или в последний час перед сроком; фигурными скобками обозначены явления, наблюдавшиеся между сроками (за 1-3 часа до срока); квадратными скобками обозначены град или гололедные отложения с указанием их диаметра в мм.
Облачность - указаны через наклонную черту общая и нижняя облачность в баллах и высота нижней границы облаков в метрах; квадратными скобками обозначены формы облаков: Ci - перистые, Cs - перисто-слоистые, Cc - перисто-кучевые, Ac - высококучевые, As - высокослоистые, Sc - слоисто-кучевые, Ns - слоисто-дождевые, Cu - кучевые, Cb - кучево-дождевые. Подробнее классификацию облаков см. в Атласе облаков (PDF).
T - Температура воздуха - температура, измеренная на высоте 2 м над землей.
Td - Температура точки росы - температура, при понижении до которой содержащийся в воздухе водяной пар достигнет насыщения.
f - Относительная влажность воздуха - влажноcть воздуха, измеренная на высоте 2 м над землей.
Te - Эффективная температура - температура, которую ощущает одетый по сезону человек в тени. Характеристика душности погоды. При расчете учитывается влияние влажности воздуха и скорости ветра на теплоощущения человека.
Tes - Эффективная температура на солнце - температура, которую ощущает человек, с поправкой на солнечный нагрев. Характеристика знойности погоды. Зависит от высоты солнца над горизонтом, облачности и скорости ветра. Ночью, в пасмурную погоду, а также при ветре 12 м/с и более поправка равна нулю.
P - Атмосферное давление - приведенное к уровню моря атмосферное давление.
Po - Атмосферное давление - измеренное на уровне метеостанции атмосферное давление.
Tmin - Минимальная температура - минимум температуры воздуха на высоте 2 м над землей.
Tmax - Максимальная температура - максимум температуры воздуха на высоте 2 м над землей.
R - Количество осадков - Количество выпавших осадков за период времени, мм. При наведении курсора мыши на число - период времени, за который выпало указанное количество осадков.
R24 - Количество осадков - Количество выпавших осадков за 24 часа, мм.
S - Снежный покров - Высота снежного покрова, см. При наведении курсора мыши на число - состояние снежного покрова и степень покрытия местности в баллах.